ZACUBE-1 (TSHEPISOSAT)

Last updated on Sun Jun 21 2026 00:03:20 GMT+0000 (Coordinated Universal Time)

1 39417U 13066B 26171.40676969 .00002330 00000+0 18337-3 0 9996 2 39417 97.8070 133.7603 0041215 236.5821 123.1458 15.01203183681216
UTC large
Height (km)
Speed (km/s)
/
Latitude / Longitude
Inclination (degrees)
Orbital Period (minutes)
Azimuth
Elevation
Range (km)
Doppler Factor

Next 0 passes for location: London (51.5072 / 0.1276)

No passes found over London.
ZACUBE-1 (TSHEPISOSAT)